Climatologie pour Saint-Brevin les Pins
Jour • Résumé pour avril 19, 2017 Système :  Métrique    Anglais   Mixte
« - 1 jour
+ 1 jour »
Jour Semaine Mois Année Personnalisé
  Maximum : Minimum : Moyenne :
Température sous abri : -17.8 °C -15.8 °C -12.5 °C
Point de rosée : -17.8 °C -17.8 °C -16.5 °C
Humidité : Humidity % 37 % 63 %
Vitesse du vent : 0 km/h 0 km/h 12.6 km/h
Rafale : 0 km/h - -
Direction :- - ENE
Pression : 0 hPa 34875.8 hPa -
Précipitations : 0 mm    
Historical Graphs
 
 
Tableau de données pour avril 19, 2017
Heure Tempé Pt rosée Pression Vent Vitesse Rafale Humidité Taux pluie (/hr) Soleil
-17.8 °C -17.8 °C 0 hPa Calm     Humidity % 0 mm SolarRadiationWatts/m^2 W/m2 Conditions
00:00 -13.2 °C -17 °C 34875.8 hPa NNE 18.2 km/h 36.2 km/h 62 % 0 mm 0 W/m2
00:10 -13.4 °C -17.1 °C 34875.8 hPa NNE 7.7 km/h 31.1 km/h 63 % 0 mm 0 W/m2
00:15 -13.5 °C -17.1 °C 34875.8 hPa NNE 15.6 km/h 25.9 km/h 64 % 0 mm 0 W/m2
00:20 -13.5 °C -16.9 °C 34875.8 hPa ENE 7.7 km/h 25.9 km/h 65 % 0 mm 0 W/m2
00:25 -13.6 °C -16.9 °C 34875.8 hPa NE 23.3 km/h 23.3 km/h 66 % 0 mm 0 W/m2
00:30 -13.7 °C -16.9 °C 34875.8 hPa East 10.3 km/h 23.3 km/h 66 % 0 mm 0 W/m2
00:35 -13.8 °C -16.8 °C 34875.8 hPa NE 20.8 km/h 23.3 km/h 68 % 0 mm 0 W/m2
00:40 -13.8 °C -16.8 °C 34875.8 hPa North 7.7 km/h 25.9 km/h 68 % 0 mm 0 W/m2
00:45 -13.8 °C -16.8 °C 34889.3 hPa ENE 7.7 km/h 28.5 km/h 68 % 0 mm 0 W/m2
00:50 -13.8 °C -16.7 °C 34889.3 hPa NE 12.9 km/h 31.1 km/h 69 % 0 mm 0 W/m2
00:55 -13.8 °C -16.7 °C 34875.8 hPa NE 15.6 km/h 31.1 km/h 70 % 0 mm 0 W/m2
01:00 -13.8 °C -16.7 °C 34889.3 hPa NNE 7.7 km/h 28.5 km/h 70 % 0 mm 0 W/m2
01:05 -14 °C -16.7 °C 34889.3 hPa NE 18.2 km/h 23.3 km/h 71 % 0 mm 0 W/m2
01:10 -14.1 °C -16.7 °C 34889.3 hPa Calm   25.9 km/h 72 % 0 mm 0 W/m2
01:15 -14.1 °C -16.6 °C 34889.3 hPa NNE 2.6 km/h 25.9 km/h 73 % 0 mm 0 W/m2
01:20 -14.1 °C -16.6 °C 34889.3 hPa NE 5.1 km/h 20.8 km/h 74 % 0 mm 0 W/m2
01:25 -14.1 °C -16.4 °C 34899.5 hPa NE 5.1 km/h 23.3 km/h 75 % 0 mm 0 W/m2
01:30 -14.2 °C -16.5 °C 34899.5 hPa ESE 10.3 km/h 23.3 km/h 75 % 0 mm 0 W/m2
01:35 -14.3 °C -16.4 °C 34899.5 hPa ENE 12.9 km/h 25.9 km/h 76 % 0 mm 0 W/m2
01:40 -14.2 °C -16.3 °C 34899.5 hPa ENE 12.9 km/h 33.6 km/h 76 % 0 mm 0 W/m2
01:45 -14.1 °C -16.3 °C 34899.5 hPa ESE 12.9 km/h 33.6 km/h 76 % 0 mm 0 W/m2
01:50 -14.1 °C -16.4 °C 34899.5 hPa East 12.9 km/h 31.1 km/h 75 % 0 mm 0 W/m2
01:55 -14.1 °C -16.4 °C 34899.5 hPa ENE 20.8 km/h 28.5 km/h 75 % 0 mm 0 W/m2
02:00 -14.1 °C -16.3 °C 34899.5 hPa East 10.3 km/h 25.9 km/h 76 % 0 mm 0 W/m2
02:05 -14.2 °C -16.4 °C 34899.5 hPa East 2.6 km/h 25.9 km/h 76 % 0 mm 0 W/m2
02:10 -14.3 °C -16.4 °C 34899.5 hPa NE 12.9 km/h 23.3 km/h 77 % 0 mm 0 W/m2
02:15 -14.4 °C -16.4 °C 34899.5 hPa East 2.6 km/h 23.3 km/h 77 % 0 mm 0 W/m2
02:20 -14.5 °C -16.4 °C 34899.5 hPa ENE 10.3 km/h 23.3 km/h 78 % 0 mm 0 W/m2
02:25 -14.6 °C -16.4 °C 34899.5 hPa East 2.6 km/h 23.3 km/h 79 % 0 mm 0 W/m2
02:30 -14.6 °C -16.3 °C 34899.5 hPa ENE 5.1 km/h 25.9 km/h 80 % 0 mm 0 W/m2
02:35 -14.6 °C -16.3 °C 34899.5 hPa East 10.3 km/h 25.9 km/h 80 % 0 mm 0 W/m2
02:40 -14.6 °C -16.4 °C 34899.5 hPa NE 7.7 km/h 20.8 km/h 80 % 0 mm 0 W/m2
02:45 -14.7 °C -16.4 °C 34909.7 hPa NE 5.1 km/h 20.8 km/h 81 % 0 mm 0 W/m2
02:50 -14.8 °C -16.3 °C 34909.7 hPa ENE 7.7 km/h 20.8 km/h 82 % 0 mm 0 W/m2
02:55 -14.7 °C -16.3 °C 34899.5 hPa ENE 7.7 km/h 20.8 km/h 82 % 0 mm 0 W/m2
03:00 -14.8 °C -16.3 °C 34899.5 hPa NE 15.6 km/h 20.8 km/h 82 % 0 mm 0 W/m2
03:10 -14.9 °C -16.3 °C 34899.5 hPa East 12.9 km/h 20.8 km/h 83 % 0 mm 0 W/m2
03:15 -14.9 °C -16.3 °C 34899.5 hPa East 7.7 km/h 18.2 km/h 83 % 0 mm 0 W/m2
03:20 -14.9 °C -16.4 °C 34899.5 hPa Calm   18.2 km/h 83 % 0 mm 0 W/m2
03:25 -14.9 °C -16.4 °C 34899.5 hPa ENE 5.1 km/h 23.3 km/h 83 % 0 mm 0 W/m2
03:30 -14.9 °C -16.4 °C 34909.7 hPa ENE 5.1 km/h 23.3 km/h 83 % 0 mm 0 W/m2
03:35 -15.1 °C -16.5 °C 34899.5 hPa East 7.7 km/h 18.2 km/h 83 % 0 mm 0 W/m2
03:40 -15.1 °C -16.5 °C 34899.5 hPa NE 5.1 km/h 18.2 km/h 83 % 0 mm 0 W/m2
03:45 -15.1 °C -16.5 °C 34899.5 hPa East 7.7 km/h 18.2 km/h 83 % 0 mm 0 W/m2
03:50 -15.1 °C -16.6 °C 34899.5 hPa East 5.1 km/h 15.6 km/h 83 % 0 mm 0 W/m2
03:55 -15.2 °C -16.6 °C 34899.5 hPa Calm   15.6 km/h 83 % 0 mm 0 W/m2
04:00 -15.2 °C -16.6 °C 34899.5 hPa ENE 2.6 km/h 18.2 km/h 83 % 0 mm 0 W/m2
04:05 -15.2 °C -16.7 °C 34899.5 hPa ENE 12.9 km/h 18.2 km/h 83 % 0 mm 0 W/m2
04:10 -15.3 °C -16.7 °C 34909.7 hPa ENE 10.3 km/h 18.2 km/h 84 % 0 mm 0 W/m2
04:15 -15.3 °C -16.7 °C 34909.7 hPa NE 7.7 km/h 15.6 km/h 84 % 0 mm 0 W/m2
04:20 -15.3 °C -16.7 °C 34909.7 hPa ENE 7.7 km/h 15.6 km/h 84 % 0 mm 0 W/m2
04:25 -15.3 °C -16.7 °C 34909.7 hPa ENE 7.7 km/h 15.6 km/h 84 % 0 mm 0 W/m2
04:30 -15.4 °C -16.7 °C 34909.7 hPa East 2.6 km/h 18.2 km/h 84 % 0 mm 0 W/m2
04:35 -15.3 °C -16.7 °C 34909.7 hPa ENE 5.1 km/h 18.2 km/h 84 % 0 mm 0 W/m2
04:40 -15.3 °C -16.7 °C 34909.7 hPa East 5.1 km/h 20.8 km/h 84 % 0 mm 0 W/m2
04:45 -15.2 °C -16.7 °C 34909.7 hPa ENE 5.1 km/h 20.8 km/h 83 % 0 mm 0 W/m2
04:50 -15.3 °C -16.8 °C 34909.7 hPa Calm   12.9 km/h 83 % 0 mm 0 W/m2
04:55 -15.3 °C -16.8 °C 34909.7 hPa East 5.1 km/h 15.6 km/h 83 % 0 mm 0 W/m2
05:00 -15.3 °C -16.8 °C 34909.7 hPa ENE 7.7 km/h 18.2 km/h 83 % 0 mm 0 W/m2
05:05 -15.4 °C -16.8 °C 34923.2 hPa ENE 2.6 km/h 18.2 km/h 84 % 0 mm 0 W/m2
05:15 -15.4 °C -16.8 °C 34923.2 hPa ENE 7.7 km/h 15.6 km/h 84 % 0 mm 0 W/m2
05:20 -15.5 °C -16.9 °C 34923.2 hPa ENE 5.1 km/h 12.9 km/h 84 % 0 mm 0 W/m2
05:25 -15.5 °C -16.9 °C 34923.2 hPa East 5.1 km/h 10.3 km/h 84 % 0 mm 0 W/m2
05:30 -15.6 °C -16.9 °C 34923.2 hPa ENE 2.6 km/h 12.9 km/h 84 % 0 mm 0 W/m2
05:35 -15.7 °C -16.9 °C 34923.2 hPa East 5.1 km/h 18.2 km/h 85 % 0 mm 0 W/m2
05:40 -15.7 °C -16.9 °C 34923.2 hPa ENE 5.1 km/h 18.2 km/h 85 % 0 mm 0 W/m2
05:45 -15.7 °C -16.9 °C 34923.2 hPa ENE 12.9 km/h 15.6 km/h 85 % 0 mm 0 W/m2
05:50 -15.7 °C -16.9 °C 34923.2 hPa ENE 7.7 km/h 20.8 km/h 85 % 0 mm 0 W/m2
05:55 -15.7 °C -16.8 °C 34923.2 hPa East 12.9 km/h 20.8 km/h 86 % 0 mm 0 W/m2
06:00 -15.6 °C -16.8 °C 34923.2 hPa ENE 10.3 km/h 20.8 km/h 85 % 0 mm 0 W/m2
06:05 -15.6 °C -16.9 °C 34923.2 hPa ENE 2.6 km/h 18.2 km/h 85 % 0 mm 0 W/m2
06:10 -15.7 °C -16.9 °C 34923.2 hPa East 2.6 km/h 18.2 km/h 85 % 0 mm 0 W/m2
06:15 -15.6 °C -16.8 °C 34923.2 hPa ENE 5.1 km/h 20.8 km/h 85 % 0 mm 0 W/m2
06:20 -15.6 °C -16.8 °C 34923.2 hPa ENE 7.7 km/h 20.8 km/h 85 % 0 mm 0 W/m2
06:25 -15.6 °C -16.9 °C 34923.2 hPa East 5.1 km/h 23.3 km/h 84 % 0 mm 0 W/m2
06:30 -15.6 °C -16.9 °C 34923.2 hPa ENE 10.3 km/h 23.3 km/h 84 % 0 mm 0 W/m2
06:35 -15.6 °C -16.9 °C 34923.2 hPa ENE 12.9 km/h 23.3 km/h 84 % 0 mm 0 W/m2
06:40 -15.5 °C -17 °C 34923.2 hPa ENE 15.6 km/h 20.8 km/h 83 % 0 mm 0 W/m2
06:45 -15.5 °C -17 °C 34923.2 hPa ENE 7.7 km/h 23.3 km/h 83 % 0 mm 0 W/m2
06:50 -15.5 °C -17 °C 34923.2 hPa Calm   23.3 km/h 83 % 0 mm 0 W/m2
06:55 -15.5 °C -17 °C 34923.2 hPa NE 2.6 km/h 20.8 km/h 83 % 0 mm 0 W/m2
07:00 -15.6 °C -17 °C 34933.4 hPa ENE 5.1 km/h 18.2 km/h 83 % 0 mm 0 W/m2
07:05 -15.7 °C -17.1 °C 34933.4 hPa East 7.7 km/h 20.8 km/h 83 % 0 mm 0 W/m2
07:10 -15.7 °C -17 °C 34933.4 hPa ENE 2.6 km/h 20.8 km/h 84 % 0 mm 0 W/m2
07:15 -15.7 °C -17 °C 34933.4 hPa ENE 10.3 km/h 23.3 km/h 84 % 0 mm 5 W/m2
07:20 -15.7 °C -17 °C 34933.4 hPa East 10.3 km/h 23.3 km/h 84 % 0 mm 7 W/m2
07:25 -15.7 °C -17.1 °C 34933.4 hPa ENE 5.1 km/h 20.8 km/h 84 % 0 mm 9 W/m2
07:30 -15.8 °C -17.1 °C 34933.4 hPa East 2.6 km/h 18.2 km/h 85 % 0 mm 12 W/m2
07:35 -15.8 °C -17 °C 34933.4 hPa ENE 5.1 km/h 18.2 km/h 86 % 0 mm 14 W/m2
07:40 -15.8 °C -16.9 °C 34933.4 hPa ENE 10.3 km/h 18.2 km/h 86 % 0 mm 18 W/m2
07:45 -15.8 °C -16.9 °C 34946.9 hPa ENE 10.3 km/h 18.2 km/h 86 % 0 mm 19 W/m2
07:50 -15.7 °C -16.9 °C 34946.9 hPa NE 2.6 km/h 15.6 km/h 86 % 0 mm 23 W/m2
07:55 -15.7 °C -16.8 °C 34946.9 hPa NE 15.6 km/h 20.8 km/h 86 % 0 mm 25 W/m2
08:00 -15.5 °C -16.8 °C 34946.9 hPa East 2.6 km/h 25.9 km/h 85 % 0 mm 26 W/m2
08:05 -15.4 °C -16.7 °C 34946.9 hPa NE 7.7 km/h 25.9 km/h 85 % 0 mm 28 W/m2
08:10 -15.4 °C -16.7 °C 34946.9 hPa ENE 12.9 km/h 25.9 km/h 85 % 0 mm 32 W/m2
08:15 -15.3 °C -16.7 °C 34946.9 hPa NE 18.2 km/h 25.9 km/h 84 % 0 mm 33 W/m2
08:20 -15.2 °C -16.6 °C 34946.9 hPa ENE 5.1 km/h 25.9 km/h 84 % 0 mm 35 W/m2
08:25 -15.1 °C -16.6 °C 34946.9 hPa East 2.6 km/h 25.9 km/h 83 % 0 mm 137 W/m2
08:30 -14.9 °C -16.4 °C 34946.9 hPa ENE 23.3 km/h 25.9 km/h 83 % 0 mm 151 W/m2
08:35 -14.8 °C -16.4 °C 34946.9 hPa NE 12.9 km/h 28.5 km/h 82 % 0 mm 171 W/m2
08:40 -14.7 °C -16.4 °C 34946.9 hPa NE 18.2 km/h 33.6 km/h 81 % 0 mm 190 W/m2
08:45 -14.6 °C -16.3 °C 34946.9 hPa ENE 10.3 km/h 33.6 km/h 81 % 0 mm 209 W/m2
08:50 -14.6 °C -16.2 °C 34957.1 hPa ENE 12.9 km/h 25.9 km/h 81 % 0 mm 227 W/m2
08:55 -14.5 °C -16.2 °C 34946.9 hPa ENE 7.7 km/h 23.3 km/h 81 % 0 mm 241 W/m2
09:00 -14.4 °C -16.2 °C 34946.9 hPa NE 20.8 km/h 28.5 km/h 80 % 0 mm 257 W/m2
09:05 -14.3 °C -16.1 °C 34957.1 hPa East 15.6 km/h 28.5 km/h 80 % 0 mm 269 W/m2
09:10 -14.1 °C -16 °C 34957.1 hPa ENE 10.3 km/h 25.9 km/h 79 % 0 mm 288 W/m2
09:15 -14 °C -15.9 °C 34957.1 hPa East 12.9 km/h 25.9 km/h 78 % 0 mm 304 W/m2
09:20 -13.8 °C -15.8 °C 34957.1 hPa NE 2.6 km/h 25.9 km/h 78 % 0 mm 313 W/m2
09:25 -13.7 °C -15.8 °C 34957.1 hPa ENE 5.1 km/h 28.5 km/h 77 % 0 mm 325 W/m2
09:30 -13.6 °C -15.8 °C 34957.1 hPa ENE 12.9 km/h 33.6 km/h 76 % 0 mm 352 W/m2
09:35 -13.6 °C -15.8 °C 34957.1 hPa ENE 12.9 km/h 33.6 km/h 76 % 0 mm 366 W/m2
09:40 -13.5 °C -15.8 °C 34946.9 hPa East 12.9 km/h 33.6 km/h 75 % 0 mm 376 W/m2
09:45 -13.3 °C -15.7 °C 34957.1 hPa East 20.8 km/h 33.6 km/h 75 % 0 mm 392 W/m2
09:50 -13.2 °C -15.4 °C 34957.1 hPa ENE 5.1 km/h 28.5 km/h 76 % 0 mm 404 W/m2
09:55 -13.1 °C -15.5 °C 34957.1 hPa East 20.8 km/h 25.9 km/h 74 % 0 mm 422 W/m2
10:00 -12.9 °C -15.4 °C 34957.1 hPa East 12.9 km/h 25.9 km/h 74 % 0 mm 436 W/m2
10:05 -12.9 °C -15.4 °C 34957.1 hPa NE 10.3 km/h 25.9 km/h 73 % 0 mm 450 W/m2
10:10 -12.7 °C -15.1 °C 34957.1 hPa East 7.7 km/h 25.9 km/h 74 % 0 mm 468 W/m2
10:15 -12.6 °C -15.1 °C 34957.1 hPa ENE 12.9 km/h 23.3 km/h 73 % 0 mm 478 W/m2
10:20 -12.6 °C -15.3 °C 34957.1 hPa East 18.2 km/h 25.9 km/h 71 % 0 mm 492 W/m2
10:25 -12.6 °C -15.2 °C 34957.1 hPa NE 7.7 km/h 28.5 km/h 72 % 0 mm 508 W/m2
10:30 -12.5 °C -15.3 °C 34957.1 hPa East 7.7 km/h 28.5 km/h 71 % 0 mm 524 W/m2
10:35 -12.3 °C -15.1 °C 34957.1 hPa ENE 12.9 km/h 25.9 km/h 71 % 0 mm 534 W/m2
10:40 -12.3 °C -15.2 °C 34957.1 hPa ENE 10.3 km/h 31.1 km/h 70 % 0 mm 548 W/m2
10:50 -12.1 °C -14.8 °C 34967.2 hPa East 12.9 km/h 33.6 km/h 72 % 0 mm 570 W/m2
10:55 -12.1 °C -15.2 °C 34967.2 hPa East 7.7 km/h 25.9 km/h 68 % 0 mm 584 W/m2
11:00 -12 °C -15.2 °C 34967.2 hPa ENE 12.9 km/h 25.9 km/h 67 % 0 mm 596 W/m2
11:05 -11.8 °C -14.8 °C 34967.2 hPa NE 12.9 km/h 31.1 km/h 69 % 0 mm 610 W/m2
11:10 -11.8 °C -14.9 °C 34967.2 hPa NE 12.9 km/h 31.1 km/h 68 % 0 mm 626 W/m2
11:20 -11.5 °C -14.9 °C 34967.2 hPa NE 20.8 km/h 28.5 km/h 66 % 0 mm 645 W/m2
11:25 -11.4 °C -14.8 °C 34967.2 hPa NE 15.6 km/h 28.5 km/h 66 % 0 mm 652 W/m2
11:30 -11.3 °C -15 °C 34967.2 hPa ENE 18.2 km/h 28.5 km/h 64 % 0 mm 666 W/m2
11:35 -11.3 °C -14.6 °C 34967.2 hPa NNE 15.6 km/h 31.1 km/h 67 % 0 mm 677 W/m2
11:40 -11.1 °C -14.6 °C 34967.2 hPa NE 7.7 km/h 31.1 km/h 66 % 0 mm 696 W/m2
11:45 -10.9 °C -14.6 °C 34967.2 hPa East 23.3 km/h 31.1 km/h 64 % 0 mm 714 W/m2
11:50 -11.1 °C -15 °C 34967.2 hPa NE 10.3 km/h 25.9 km/h 62 % 0 mm 712 W/m2
11:55 -10.8 °C -14.8 °C 34967.2 hPa ESE 12.9 km/h 28.5 km/h 62 % 0 mm 740 W/m2
12:00 -10.7 °C -14.8 °C 34967.2 hPa NE 10.3 km/h 28.5 km/h 61 % 0 mm 740 W/m2
12:05 -10.8 °C -14.7 °C 34967.2 hPa ESE 20.8 km/h 28.5 km/h 62 % 0 mm 786 W/m2
12:10 -10.7 °C -14.7 °C 34967.2 hPa East 18.2 km/h 28.5 km/h 62 % 0 mm 765 W/m2
12:15 -10.4 °C -14.1 °C 34967.2 hPa NE 12.9 km/h 28.5 km/h 64 % 0 mm 800 W/m2
12:20 -10.6 °C -15.5 °C 34967.2 hPa East 18.2 km/h 28.5 km/h 55 % 0 mm 796 W/m2
12:25 -10.6 °C -15.3 °C 34967.2 hPa NE 28.5 km/h 33.6 km/h 56 % 0 mm 817 W/m2
12:30 -10.6 °C -15.3 °C 34967.2 hPa NNE 10.3 km/h 36.2 km/h 56 % 0 mm 842 W/m2
12:35 -10.7 °C -15.6 °C 34967.2 hPa ENE 28.5 km/h 36.2 km/h 55 % 0 mm 810 W/m2
12:40 -10.5 °C -15.6 °C 34967.2 hPa ESE 28.5 km/h 33.6 km/h 54 % 0 mm 826 W/m2
12:45 -10.4 °C -15.4 °C 34967.2 hPa ESE 28.5 km/h 36.2 km/h 54 % 0 mm 846 W/m2
12:50 -10.4 °C -15.6 °C 34967.2 hPa ENE 18.2 km/h 36.2 km/h 53 % 0 mm 826 W/m2
12:55 -10.4 °C -15.4 °C 34967.2 hPa NNE 7.7 km/h 33.6 km/h 54 % 0 mm 840 W/m2
13:00 -10.2 °C -15.4 °C 34967.2 hPa East 15.6 km/h 33.6 km/h 53 % 0 mm 875 W/m2
13:05 -10.1 °C -15.5 °C 34967.2 hPa East 15.6 km/h 25.9 km/h 52 % 0 mm 893 W/m2
13:15 -10.1 °C -15.9 °C 34957.1 hPa East 20.8 km/h 41.4 km/h 49 % 0 mm 846 W/m2
13:20 -9.9 °C -15.6 °C 34957.1 hPa ESE 31.1 km/h 44.1 km/h 50 % 0 mm 854 W/m2
13:25 -9.9 °C -15.1 °C 34957.1 hPa ENE 23.3 km/h 44.1 km/h 54 % 0 mm 889 W/m2
13:30 -9.8 °C -15.7 °C 34957.1 hPa East 20.8 km/h 36.2 km/h 49 % 0 mm 914 W/m2
13:35 -10.1 °C -16.1 °C 34957.1 hPa ENE 20.8 km/h 38.8 km/h 48 % 0 mm 865 W/m2
13:40 -9.9 °C -15.8 °C 34957.1 hPa ENE 28.5 km/h 38.8 km/h 49 % 0 mm 844 W/m2
13:45 -9.7 °C -15.4 °C 34957.1 hPa ENE 25.9 km/h 41.4 km/h 50 % 0 mm 872 W/m2
13:50 -10 °C -15.9 °C 34957.1 hPa ENE 5.1 km/h 41.4 km/h 49 % 0 mm 404 W/m2
13:55 -9.9 °C -15.6 °C 34946.9 hPa ESE 23.3 km/h 33.6 km/h 50 % 0 mm 942 W/m2
14:00 -9.5 °C -15.4 °C 34946.9 hPa SE 18.2 km/h 49.2 km/h 49 % 0 mm 930 W/m2
14:05 -9.5 °C -16.1 °C 34946.9 hPa ESE 23.3 km/h 49.2 km/h 45 % 0 mm 886 W/m2
14:10 -9.4 °C -16.2 °C 34946.9 hPa ESE 23.3 km/h 41.4 km/h 44 % 0 mm 942 W/m2
14:15 -9.5 °C -15.7 °C 34946.9 hPa NE 5.1 km/h 41.4 km/h 47 % 0 mm 932 W/m2
14:20 -9.2 °C -15.4 °C 34946.9 hPa East 20.8 km/h 36.2 km/h 47 % 0 mm 856 W/m2
14:25 -9.3 °C -15.8 °C 34946.9 hPa NNE 20.8 km/h 41.4 km/h 46 % 0 mm 861 W/m2
14:30 -9.4 °C -15.5 °C 34946.9 hPa ESE 10.3 km/h 41.4 km/h 48 % 0 mm 844 W/m2
14:35 -9.4 °C -15.3 °C 34946.9 hPa NNE 5.1 km/h 38.8 km/h 49 % 0 mm 837 W/m2
14:40 -9.4 °C -15.3 °C 34933.4 hPa ESE 28.5 km/h 38.8 km/h 49 % 0 mm 896 W/m2
14:45 -9.4 °C -15.9 °C 34933.4 hPa ESE 36.2 km/h 46.7 km/h 45 % 0 mm 842 W/m2
14:50 -9.4 °C -16 °C 34933.4 hPa East 15.6 km/h 46.7 km/h 45 % 0 mm 867 W/m2
14:55 -9.3 °C -15.9 °C 34933.4 hPa East 25.9 km/h 44.1 km/h 45 % 0 mm 884 W/m2
15:00 -9.5 °C -15.3 °C 34933.4 hPa ENE 20.8 km/h 46.7 km/h 50 % 0 mm 814 W/m2
15:05 -9.7 °C -15.6 °C 34933.4 hPa East 23.3 km/h 46.7 km/h 49 % 0 mm 888 W/m2
15:10 -9.6 °C -16.1 °C 34933.4 hPa NE 20.8 km/h 46.7 km/h 45 % 0 mm 153 W/m2
15:15 -9.8 °C -16.3 °C 34933.4 hPa NNE 15.6 km/h 41.4 km/h 45 % 0 mm 837 W/m2
15:20 -9.4 °C -15.8 °C 34933.4 hPa ENE 18.2 km/h 41.4 km/h 46 % 0 mm 824 W/m2
15:25 -9.2 °C -15.9 °C 34933.4 hPa East 5.1 km/h 38.8 km/h 44 % 0 mm 842 W/m2
15:30 -9.3 °C -15.7 °C 34933.4 hPa East 23.3 km/h 38.8 km/h 46 % 0 mm 819 W/m2
15:35 -9.3 °C -16.2 °C 34933.4 hPa ENE 7.7 km/h 38.8 km/h 43 % 0 mm 823 W/m2
15:40 -8.9 °C -15.4 °C 34933.4 hPa North 12.9 km/h 38.8 km/h 46 % 0 mm 765 W/m2
15:45 -8.8 °C -15.7 °C 34923.2 hPa East 15.6 km/h 38.8 km/h 44 % 0 mm 837 W/m2
15:50 -8.9 °C -15.9 °C 34923.2 hPa NE 31.1 km/h 38.8 km/h 43 % 0 mm 174 W/m2
15:55 -9.4 °C -16.6 °C 34923.2 hPa North 12.9 km/h 41.4 km/h 42 % 0 mm 795 W/m2
16:00 -9.3 °C -15.8 °C 34923.2 hPa NE 23.3 km/h 41.4 km/h 45 % 0 mm 181 W/m2
16:05 -9.2 °C -16 °C 34923.2 hPa North 28.5 km/h 33.6 km/h 44 % 0 mm 838 W/m2
16:10 -9.2 °C -15.8 °C 34923.2 hPa East 7.7 km/h 33.6 km/h 45 % 0 mm 772 W/m2
16:15 -9.4 °C -15.5 °C 34909.7 hPa NE 18.2 km/h 44.1 km/h 48 % 0 mm 724 W/m2
16:20 -9.2 °C -15.9 °C 34909.7 hPa NE 33.6 km/h 44.1 km/h 44 % 0 mm 726 W/m2
16:25 -9.1 °C -16.2 °C 34909.7 hPa ESE 20.8 km/h 54.4 km/h 42 % 0 mm 689 W/m2
16:30 -9 °C -16.2 °C 34909.7 hPa ENE 23.3 km/h 54.4 km/h 42 % 0 mm 680 W/m2
16:35 -9 °C -16.6 °C 34909.7 hPa ENE 33.6 km/h 44.1 km/h 40 % 0 mm 696 W/m2
16:40 -9.4 °C -16.3 °C 34909.7 hPa East 18.2 km/h 44.1 km/h 43 % 0 mm 668 W/m2
16:45 -9.3 °C -16.8 °C 34909.7 hPa East 20.8 km/h 44.1 km/h 40 % 0 mm 649 W/m2
16:50 -9.1 °C -16.8 °C 34909.7 hPa NE 10.3 km/h 41.4 km/h 39 % 0 mm 642 W/m2
16:55 -9.1 °C -16.8 °C 34909.7 hPa NE 31.1 km/h 57 km/h 39 % 0 mm 633 W/m2
17:00 -9.2 °C -16.9 °C 34909.7 hPa East 20.8 km/h 57 km/h 39 % 0 mm 603 W/m2
17:10 -9 °C -16 °C 34899.5 hPa NNE 25.9 km/h 41.4 km/h 43 % 0 mm 573 W/m2
17:15 -9.1 °C -17 °C 34899.5 hPa ENE 25.9 km/h 44.1 km/h 38 % 0 mm 577 W/m2
17:20 -9.1 °C -16.7 °C 34899.5 hPa ENE 20.8 km/h 44.1 km/h 40 % 0 mm 563 W/m2
17:25 -9 °C -16.3 °C 34899.5 hPa East 25.9 km/h 41.4 km/h 41 % 0 mm 547 W/m2
17:30 -9.2 °C -16.7 °C 34899.5 hPa ENE 20.8 km/h 44.1 km/h 40 % 0 mm 520 W/m2
17:35 -9.3 °C -16.9 °C 34899.5 hPa East 28.5 km/h 44.1 km/h 40 % 0 mm 519 W/m2
17:40 -9.3 °C -16.8 °C 34899.5 hPa ENE 28.5 km/h 38.8 km/h 40 % 0 mm 510 W/m2
17:45 -9.3 °C -16.7 °C 34899.5 hPa North 15.6 km/h 41.4 km/h 41 % 0 mm 480 W/m2
17:50 -9.3 °C -16.6 °C 34899.5 hPa North 18.2 km/h 41.4 km/h 41 % 0 mm 471 W/m2
17:55 -9.3 °C -17.1 °C 34899.5 hPa ENE 23.3 km/h 41.4 km/h 39 % 0 mm 478 W/m2
18:00 -9.3 °C -16.4 °C 34899.5 hPa NE 20.8 km/h 38.8 km/h 42 % 0 mm 436 W/m2
18:05 -9.3 °C -16.6 °C 34889.3 hPa East 25.9 km/h 38.8 km/h 41 % 0 mm 429 W/m2
18:10 -9.4 °C -17.3 °C 34889.3 hPa ENE 23.3 km/h 38.8 km/h 38 % 0 mm 410 W/m2
18:15 -9.3 °C -17.1 °C 34889.3 hPa East 10.3 km/h 36.2 km/h 39 % 0 mm 408 W/m2
18:20 -9.5 °C -17.4 °C 34889.3 hPa East 33.6 km/h 46.7 km/h 38 % 0 mm 388 W/m2
18:25 -9.4 °C -16.8 °C 34889.3 hPa ENE 33.6 km/h 46.7 km/h 41 % 0 mm 373 W/m2
18:30 -9.5 °C -17 °C 34889.3 hPa ESE 23.3 km/h 38.8 km/h 40 % 0 mm 353 W/m2
18:35 -9.6 °C -17.4 °C 34889.3 hPa East 12.9 km/h 36.2 km/h 38 % 0 mm 345 W/m2
18:40 -9.6 °C -17.7 °C 34889.3 hPa NE 18.2 km/h 46.7 km/h 37 % 0 mm 329 W/m2
18:45 -9.6 °C -17.1 °C 34889.3 hPa East 25.9 km/h 46.7 km/h 40 % 0 mm 316 W/m2
18:50 -9.7 °C -17.6 °C 34899.5 hPa East 25.9 km/h 41.4 km/h 38 % 0 mm 299 W/m2
18:55 -9.8 °C -17.8 °C 34889.3 hPa ENE 10.3 km/h 51.8 km/h 37 % 0 mm 283 W/m2
19:00 -9.8 °C -17.5 °C 34889.3 hPa ENE 12.9 km/h 51.8 km/h 39 % 0 mm 269 W/m2
19:05 -9.8 °C -17.3 °C 34889.3 hPa ENE 36.2 km/h 41.4 km/h 40 % 0 mm 244 W/m2
19:10 -9.9 °C -17.2 °C 34889.3 hPa East 28.5 km/h 41.4 km/h 41 % 0 mm 234 W/m2
19:15 -10.1 °C -17.5 °C 34889.3 hPa ENE 10.3 km/h 41.4 km/h 40 % 0 mm 149 W/m2
19:20 -10 °C -17.3 °C 34889.3 hPa NE 5.1 km/h 33.6 km/h 41 % 0 mm 63 W/m2
19:25 -10.1 °C -17.6 °C 34889.3 hPa ENE 12.9 km/h 38.8 km/h 40 % 0 mm 54 W/m2
19:30 -10.2 °C -17.7 °C 34889.3 hPa East 15.6 km/h 38.8 km/h 40 % 0 mm 65 W/m2
19:35 -10.3 °C -17.7 °C 34889.3 hPa NE 15.6 km/h 38.8 km/h 40 % 0 mm 77 W/m2
19:40 -10.3 °C -17.6 °C 34889.3 hPa NE 5.1 km/h 38.8 km/h 41 % 0 mm 51 W/m2
19:45 -10.4 °C -17.8 °C 34889.3 hPa North 18.2 km/h 38.8 km/h 40 % 0 mm 49 W/m2
19:50 -10.4 °C -17.6 °C 34889.3 hPa ESE 20.8 km/h 38.8 km/h 41 % 0 mm 69 W/m2
19:55 -10.4 °C -17.3 °C 34889.3 hPa East 2.6 km/h 38.8 km/h 43 % 0 mm 90 W/m2
20:00 -10.6 °C -17.4 °C 34889.3 hPa ENE 18.2 km/h 31.1 km/h 43 % 0 mm 77 W/m2
20:05 -10.7 °C -17.7 °C 34889.3 hPa NE 12.9 km/h 33.6 km/h 42 % 0 mm 70 W/m2
20:10 -10.7 °C -17.6 °C 34889.3 hPa ENE 10.3 km/h 33.6 km/h 43 % 0 mm 53 W/m2
20:15 -10.8 °C -17.6 °C 34899.5 hPa East 20.8 km/h 31.1 km/h 43 % 0 mm 30 W/m2
20:20 -10.9 °C -17.5 °C 34899.5 hPa NE 10.3 km/h 31.1 km/h 44 % 0 mm 26 W/m2
20:25 -10.9 °C -17.6 °C 34899.5 hPa East 18.2 km/h 28.5 km/h 44 % 0 mm 23 W/m2
20:30 -10.9 °C -17.8 °C 34899.5 hPa ENE 20.8 km/h 36.2 km/h 43 % 0 mm 21 W/m2
20:35 -11.1 °C -17.7 °C 34899.5 hPa ESE 15.6 km/h 36.2 km/h 44 % 0 mm 19 W/m2
20:40 -11.2 °C -17.6 °C 34899.5 hPa East 5.1 km/h 23.3 km/h 45 % 0 mm 16 W/m2
20:45 -11.3 °C -17.7 °C 34899.5 hPa ENE 10.3 km/h 25.9 km/h 45 % 0 mm 12 W/m2
20:50 -11.5 °C -17.7 °C 34899.5 hPa ENE 18.2 km/h 25.9 km/h 46 % 0 mm 11 W/m2
20:55 -11.4 °C -17.5 °C 34899.5 hPa ENE 2.6 km/h 25.9 km/h 47 % 0 mm 7 W/m2
21:00 -11.5 °C -17.6 °C 34909.7 hPa ENE 7.7 km/h 20.8 km/h 47 % 0 mm 5 W/m2
21:05 -11.8 °C -17.3 °C 34909.7 hPa Calm   20.8 km/h 50 % 0 mm 0 W/m2
21:10 -11.9 °C -17.3 °C 34909.7 hPa ENE 7.7 km/h 18.2 km/h 51 % 0 mm 0 W/m2
21:15 -12 °C -17.4 °C 34909.7 hPa NE 5.1 km/h 18.2 km/h 51 % 0 mm 0 W/m2
21:20 -12.1 °C -17.4 °C 34909.7 hPa Calm   18.2 km/h 51 % 0 mm 0 W/m2
21:25 -12.2 °C -17.3 °C 34923.2 hPa NE 5.1 km/h 23.3 km/h 53 % 0 mm 0 W/m2
21:30 -12.3 °C -17.4 °C 34923.2 hPa East 7.7 km/h 23.3 km/h 53 % 0 mm 0 W/m2
21:35 -12.3 °C -17.4 °C 34923.2 hPa East 5.1 km/h 18.2 km/h 53 % 0 mm 0 W/m2
21:40 -12.4 °C -17.4 °C 34923.2 hPa NE 10.3 km/h 18.2 km/h 53 % 0 mm 0 W/m2
21:45 -12.4 °C -17.4 °C 34923.2 hPa ENE 7.7 km/h 18.2 km/h 54 % 0 mm 0 W/m2
21:50 -12.6 °C -17.4 °C 34923.2 hPa Calm   18.2 km/h 55 % 0 mm 0 W/m2
21:55 -12.8 °C -17.3 °C 34933.4 hPa NE 7.7 km/h 12.9 km/h 57 % 0 mm 0 W/m2
22:00 -12.8 °C -17.3 °C 34933.4 hPa ENE 12.9 km/h 18.2 km/h 57 % 0 mm 0 W/m2
22:05 -12.7 °C -17.3 °C 34933.4 hPa Calm   20.8 km/h 56 % 0 mm 0 W/m2
22:10 -12.7 °C -17.4 °C 34933.4 hPa East 5.1 km/h 20.8 km/h 55 % 0 mm 0 W/m2
22:15 -12.6 °C -17.4 °C 34933.4 hPa Calm   20.8 km/h 55 % 0 mm 0 W/m2
22:20 -12.7 °C -17.5 °C 34946.9 hPa East 5.1 km/h 18.2 km/h 55 % 0 mm 0 W/m2
22:25 -12.8 °C -17.4 °C 34946.9 hPa ENE 5.1 km/h 15.6 km/h 56 % 0 mm 0 W/m2
22:30 -12.9 °C -17.5 °C 34946.9 hPa East 7.7 km/h 20.8 km/h 56 % 0 mm 0 W/m2
22:35 -13.1 °C -17.3 °C 34946.9 hPa Calm   20.8 km/h 59 % 0 mm 0 W/m2
22:40 -13.1 °C -17.4 °C 34946.9 hPa ENE 7.7 km/h 18.2 km/h 58 % 0 mm 0 W/m2
22:45 -13 °C -17.3 °C 34957.1 hPa East 2.6 km/h 18.2 km/h 58 % 0 mm 0 W/m2
22:50 -13.1 °C -17.4 °C 34957.1 hPa East 5.1 km/h 12.9 km/h 58 % 0 mm 0 W/m2
22:55 -13.3 °C -17.3 °C 34957.1 hPa ENE 5.1 km/h 12.9 km/h 60 % 0 mm 0 W/m2
23:00 -13.6 °C -17.3 °C 34957.1 hPa Calm   7.7 km/h 62 % 0 mm 0 W/m2
23:05 -13.7 °C -17.3 °C 34957.1 hPa ENE 5.1 km/h 7.7 km/h 63 % 0 mm 0 W/m2
23:10 -13.7 °C -17.3 °C 34957.1 hPa ENE 2.6 km/h 12.9 km/h 63 % 0 mm 0 W/m2
23:15 -13.7 °C -17.3 °C 34967.2 hPa East 2.6 km/h 12.9 km/h 64 % 0 mm 0 W/m2
23:20 -13.8 °C -17.3 °C 34967.2 hPa ENE 10.3 km/h 20.8 km/h 64 % 0 mm 0 W/m2
23:25 -13.8 °C -17.3 °C 34967.2 hPa NE 7.7 km/h 20.8 km/h 64 % 0 mm 0 W/m2
23:30 -13.9 °C -17.3 °C 34967.2 hPa East 12.9 km/h 18.2 km/h 65 % 0 mm 0 W/m2
23:35 -13.8 °C -17.3 °C 34967.2 hPa ENE 12.9 km/h 25.9 km/h 65 % 0 mm 0 W/m2
23:40 -13.9 °C -17.4 °C 34967.2 hPa NE 5.1 km/h 25.9 km/h 64 % 0 mm 0 W/m2
23:45 -13.8 °C -17.3 °C 34967.2 hPa East 15.6 km/h 28.5 km/h 64 % 0 mm 0 W/m2
23:50 -13.8 °C -17.6 °C 34967.2 hPa NE 2.6 km/h 28.5 km/h 62 % 0 mm 0 W/m2
23:55 -13.7 °C -17.6 °C 34967.2 hPa ENE 12.9 km/h 28.5 km/h 61 % 0 mm 0 W/m2
Avec l'autorisation de Weather Underground - 1.75 mb